Location: Newark
(50.0306°N, 2.3272°E)
Time: 06:50:04
(UTC+00:00)

Transit 2A Rocket - Pass Details

Date: 10 December 2019
Orbit: 593 x 910 km, 66.7° (Epoch: 26 January)

Event Time Altitude Azimuth Distance (km) Brightness Sun altitude
Rises 01:35:03 0° 317° (NW) 2,870 - -55.1°
Reaches altitude 10° 01:37:23 10° 308° (NW) 1,986 - -54.9°
Maximum altitude 01:41:25 35° 243° (WSW) 1,041 - -54.4°
Drops below altitude 10° 01:45:42 10° 178° (S) 2,105 - -53.8°
Sets 01:48:15 0° 170° (S) 3,069 - -53.5°
